COSMOS 1975

Last updated on Sat Aug 15 2026 00:02:07 GMT+0000 (Coordinated Universal Time)

1 19573U 88093A 26226.30856447 .00003618 00000+0 12332-3 0 9999 2 19573 82.5216 319.2133 0010181 340.7126 19.3728 15.29989538 43496
UTC large
Height (km)
Speed (km/s)
/
Latitude / Longitude
Inclination (degrees)
Orbital Period (minutes)
Azimuth
Elevation
Range (km)
Doppler Factor

Next 0 passes for location: London (51.5072 / 0.1276)

No passes found over London.
COSMOS 1975